Location: *
(48.8489°N, 2.3218°E)
Time: 20:18:06
(UTC+00:00)

COSMOS 2455 - Pass Details

Date: 23 August 2019
Orbit: 900 x 909 km, 67.2° (Epoch: 23 October)

Event Time Altitude Azimuth Distance (km) Brightness Sun altitude
Rises 23:31:11 0° 325° (NW) 3,549 6.8 -29.7°
Reaches altitude 10° 23:33:44 10° 329° (NNW) 2,605 6.0 -29.7°
Maximum altitude 23:39:45 64° 51° (NE) 1,004 3.1 -29.8°
Enters shadow 23:40:05 63° 69° (ENE) 1,013 3.0 -29.8°
